Regional Weather Roundup
Issued by NWS Portland, ME

Current Version | Previous Version | Text Only | Print | Product List | Glossary Off
Versions: 1 2 3 4 5 6 7 8 9 10 11 12 13 14 15 16 17 18 19 20 21 22 23 24 25 26 27 28 29 30 31 32 33 34 35 36 37 38 39 40 41 42 43 44 45 46 47 48 49 50
850 ASUS41 KGYX 220205 RWRGYX WEATHER ROUNDUP FOR MAINE AND NEW HAMPSHIRE NATIONAL WEATHER SERVICE GRAY ME 1000 PM EDT MON AUG 21 2017 MEZ002-005-006-010-012-015-018-020-021-024-026-027-029-220300- MAINE CITY SKY/WX TMP DP RH WIND PRES REMARKS PORTLAND CLEAR 72 63 73 S7 30.03F SANFORD CLEAR 64 63 96 CALM 30.05F BAR HARBOR CLEAR 65 60 84 S6 30.01F WISCASSET CLEAR 65 62 90 CALM 30.04F ROCKLAND CLEAR 67 62 84 SW5 30.02F FRYEBURG CLEAR 72 61 68 SW5 30.03F LEWISTONAUBURN CLEAR 70 64 81 S5 30.02F AUGUSTA CLEAR 69 65 86 S6 30.02F WATERVILLE CLEAR 68 65 90 SW3 29.99S BANGOR CLEAR 72 63 73 S6 30.00S GREENVILLE N/A 69 57 65 CALM 30.01S MILLINOCKET CLEAR 69 60 73 CALM 29.98S HOULTON CLOUDY 69 60 73 S7 29.95S PRESQUE ISLE CLOUDY 73 60 63 SW7 29.94S FRENCHVILLE CLOUDY 70 59 68 W7 29.92R CARIBOU MOCLDY 70 60 70 SW6 29.92S $$ NHZ002-005-008-009-011-012-014-220300- NEW HAMPSHIRE CITY SKY/WX TMP DP RH WIND PRES REMARKS PORTSMOUTH CLEAR 72 64 76 SW7 30.03F ROCHESTER CLEAR 70 63 78 CALM 30.05S NASHUA CLEAR 72 66 81 CALM 30.07S MANCHESTER CLEAR 74 64 71 SW5 30.05S CONCORD CLEAR 65 63 93 CALM 30.06S LACONIA CLEAR 70 61 73 W7 30.06F PLYMOUTH FAIR 63 61 94 CALM 30.05F FOG BERLIN CLEAR 61 58 90 CALM 30.05F FOG WHITEFIELD CLEAR 63 59 87 CALM 30.06R JAFFREY CLEAR 67 66 97 CALM 30.12S KEENE N/A N/A N/A N/A MISG N/A LEBANON CLEAR 67 63 87 S5 30.05S MT WASHINGTON PTCLDY 52 50 93 W31 N/A $$ VTZ005-007-008-220300- VERMONT CITY SKY/WX TMP DP RH WIND PRES REMARKS ST JOHNSBURY N/A 66 65 96 MISG 30.03S MONTPELIER CLEAR 71 61 70 CALM 30.09S BURLINGTON CLEAR 74 65 73 S6 30.01S $$ MAZ007-012-024-CTZ003-RIZ002-NYZ038-NYZ072-220300- SOUTHERN NEW ENGLAND AND NY CITY SKY/WX TMP DP RH WIND PRES REMARKS BOSTON CLEAR 77 64 64 SW13 30.07S WORCESTER CLEAR 70 62 76 SW10 30.12F NANTUCKET CLEAR 69 68 96 W10 30.12S PROVIDENCE PTCLDY 74 64 71 SW7 30.11S HARTFORD CLEAR 75 65 70 S7 30.09S ALBANY PTCLDY 77 67 71 S7 30.05F NEW YORK CITY PTCLDY 81 71 71 SW12 30.11R $$ ANZ081-ANZ082-ANZ150-NHZ014-MEZ023>029-220300- COASTAL MARINE OBSERVATIONS STATION/POSITION TIME TEMP WIND PRES WAVE AIR SEA DIR/SP/G HT/PER (UTC) (F) (DEG/KT/KT) (MB) (FT/S) MOUNT DESERT ROC 0200 61 1016.6F MATINICUS ROCK 0100 65 220/ 19/ 20 1016.6R ISLE OF SHOALS 0100 79 230/ 14/ 15 1017.3R JEFFREYS LEDGE 0106 67 N/A 1/ 8 CASHES LEDGE BUO 0050 70 69 1017.3 2/ 3 GEORGES BANK BUO 0050 66 65 1019.6 2/ 7 $$ .............KEY.............. WCI - WIND CHILL TC - TEMPERATURE IN CELSIUS VSB - VISIBILITY IN MILES HX - HEAT INDEX FAIR- INDICATES FEW OR NO CLOUDS BELOW 12,000 FT, WITH NO SIGNIFICANT WEATHER AND/OR OBSTRUCTIONS TO VISIBILITY.

USA.gov is the U.S. government's official web portal to all federal, state and local government web resources and services.